Theta_e
324 325 324 324 325 323 322 323 322 321 320 321 319 317 317 319 321 321 320 320 321 318 319 321 315 316 317 314 317 319 319 318 316 316 314 317 319 315 315 318 317 315 316 318 318 319 319 320 319 318 318 318 319 319 320 320 319 318 318 319 318 318
325 325 324 324 325 324 324 324 323 323 322 323 322 320 320 322 321 321 321 320 321 320 319 321 318 318 320 319 319 319 320 319 318 319 316 317 320 316 316 318 318 317 317 317 317 318 318 319 318 318 319 319 319 319 320 320 319 319 319 318 318 318
325 325 325 325 324 324 324 324 324 323 324 324 322 322 321 321 320 319 320 321 321 320 319 321 320 319 321 320 320 320 320 320 319 320 318 317 319 318 317 318 319 317 317 318 317 317 318 317 318 318 319 319 319 319 320 319 319 319 319 318 318 318
325 324 325 325 324 325 323 323 325 323 323 324 322 322 322 321 320 317 319 321 320 320 320 321 320 319 321 320 320 320 320 320 319 320 319 317 319 318 318 319 318 317 317 318 318 318 317 317 318 318 318 318 318 319 319 319 319 319 319 318 318 318
325 325 325 324 324 325 323 324 325 323 323 324 321 321 321 322 321 318 319 320 319 321 320 321 321 320 320 320 320 319 320 320 319 320 319 317 320 319 318 319 319 319 318 318 318 318 317 317 318 317 317 318 318 318 319 319 319 319 319 318 318 317
325 325 325 325 325 324 323 325 324 322 322 323 322 321 321 321 321 319 320 319 318 320 321 320 320 320 320 319 319 319 319 320 319 319 318 318 320 319 318 319 320 319 318 318 318 317 317 318 317 317 317 317 318 318 319 319 318 319 318 318 317 317
325 324 324 323 324 325 323 324 323 322 322 321 321 322 321 320 321 320 319 319 318 319 321 320 319 320 320 320 319 319 319 319 320 319 318 318 319 319 319 319 320 319 318 317 317 317 317 317 317 317 317 317 317 318 319 318 318 318 318 317 317 317
327 325 324 321 323 325 322 323 324 323 322 321 321 321 320 320 321 320 319 319 319 319 320 319 318 319 320 319 318 318 319 319 319 319 319 318 318 318 319 318 319 319 318 318 318 317 317 317 317 317 317 317 317 317 317 318 318 318 317 317 316 317
327 325 325 322 323 324 320 322 323 322 322 322 323 319 319 321 321 320 319 319 319 318 319 318 318 319 319 319 318 318 319 319 318 318 318 318 318 318 318 318 318 318 318 318 318 317 318 318 317 317 317 317 316 316 316 317 318 317 317 317 316 317
327 325 324 322 324 325 320 323 324 322 322 322 322 320 321 322 320 320 319 318 319 318 318 318 317 319 319 319 319 318 318 318 318 318 318 318 317 317 317 317 317 317 318 317 317 317 317 318 317 317 317 316 316 316 316 317 317 317 317 316 317 317
324 324 322 323 325 324 322 322 323 322 323 321 320 321 322 321 319 320 319 318 319 318 318 318 317 318 318 318 318 318 318 318 318 317 317 317 317 317 317 317 317 317 317 317 317 317 317 317 317 317 316 315 316 316 316 316 316 317 317 316 316 316
324 322 318 325 325 322 323 321 321 323 323 321 320 321 322 321 320 319 319 318 318 318 318 318 317 318 318 318 318 318 318 318 317 317 317 317 317 317 317 317 317 317 317 317 317 317 317 317 316 317 316 315 316 316 316 316 316 317 317 316 316 316
324 319 316 325 325 322 324 322 323 323 321 321 321 321 320 320 320 318 319 319 318 318 318 318 318 317 318 318 318 318 318 317 317 317 317 317 317 317 317 317 317 317 317 316 316 316 316 316 316 316 315 316 316 316 316 316 317 317 316 316 316 316
320 320 320 322 324 323 324 323 323 323 321 320 321 321 319 320 320 319 319 319 318 318 318 318 318 317 318 318 318 318 317 317 317 317 317 317 317 317 317 317 317 317 317 316 317 316 316 316 316 316 315 315 316 315 315 316 316 316 316 316 316 316
317 323 321 319 325 324 321 324 323 322 321 320 320 321 320 319 320 319 319 319 318 317 318 318 318 317 317 318 318 318 317 317 317 317 317 317 317 316 317 317 317 317 316 316 317 316 316 316 316 315 315 315 316 315 314 315 316 316 316 316 316 315
319 324 323 319 325 324 321 324 322 320 320 321 321 321 321 320 320 319 319 319 318 318 318 318 318 317 317 318 318 317 317 317 317 317 317 317 317 317 317 316 316 316 316 316 316 316 316 316 316 315 315 315 315 315 315 316 316 316 315 315 315 316
322 324 325 320 321 322 321 322 322 321 320 322 321 320 321 320 320 319 318 319 318 318 318 318 318 317 318 317 317 318 318 317 317 317 317 317 317 317 316 316 316 316 316 316 316 316 316 315 315 315 315 315 315 315 315 316 316 315 315 315 315 316
322 323 324 322 322 322 322 322 323 323 321 321 321 320 320 320 320 319 319 319 318 319 318 318 318 318 318 317 317 318 318 317 317 317 317 317 317 317 316 316 316 316 315 316 316 315 315 315 315 315 315 314 314 315 316 316 316 315 315 315 315 314
319 320 318 319 323 323 322 322 322 322 322 321 321 321 320 320 320 320 319 319 318 319 318 318 318 318 318 317 317 317 317 317 317 317 318 317 317 317 316 316 316 315 315 316 315 315 315 314 314 314 314 314 313 314 315 315 315 315 314 314 314 314
310 312 313 315 321 324 323 322 322 323 322 321 321 321 321 320 320 320 320 319 318 318 318 318 318 317 318 317 318 317 317 317 317 318 318 317 317 317 316 316 316 315 315 316 316 315 315 314 314 314 313 313 312 313 315 316 315 314 313 313 314 313
306 308 316 322 324 324 324 323 322 322 322 322 322 321 321 321 320 320 320 318 318 318 318 318 318 318 318 318 318 317 318 318 317 318 317 317 317 317 316 316 315 315 315 316 316 315 315 314 313 313 313 313 312 312 314 316 314 312 312 313 313 313
309 305 312 323 327 325 325 325 324 323 322 322 323 322 322 322 321 320 319 319 318 318 318 318 318 318 318 318 318 317 318 317 317 318 317 317 317 317 316 316 316 315 315 315 315 315 314 314 313 313 313 312 312 311 312 314 312 311 312 312 312 312
310 307 310 316 319 320 323 324 325 324 324 323 323 322 321 321 320 319 319 319 319 318 318 318 318 318 318 319 318 317 318 317 317 317 317 317 317 317 317 316 316 315 315 315 315 315 314 314 313 313 312 311 312 312 312 313 311 310 312 311 311 312
308 310 316 313 306 309 315 319 323 323 320 321 324 322 319 320 320 320 320 320 319 319 318 318 318 318 318 319 318 318 317 317 317 317 317 317 317 317 317 316 316 315 315 315 315 314 314 314 313 312 312 311 311 312 312 312 311 311 311 310 311 312
307 307 311 309 302 304 309 309 314 317 314 316 321 322 320 320 321 321 320 321 320 319 319 318 318 318 319 319 319 318 317 316 317 317 318 317 317 317 317 316 316 315 315 315 315 314 314 313 312 312 312 311 311 311 312 311 311 311 310 310 311 312
307 304 304 304 303 303 305 306 312 318 318 319 322 323 323 323 323 321 321 322 320 319 319 319 319 318 318 319 319 319 317 317 318 318 318 317 316 317 318 316 315 315 315 315 315 314 314 313 312 312 312 311 310 310 311 311 311 311 310 310 311 312
305 304 303 303 303 302 304 310 319 325 326 326 325 324 323 323 322 319 317 318 318 319 319 320 320 319 319 319 319 318 317 318 319 319 318 317 316 318 317 316 315 315 315 315 314 314 313 313 312 312 311 311 310 310 310 310 311 311 311 311 312 312
304 304 303 303 303 303 304 309 317 322 323 324 324 325 324 323 322 319 316 315 316 319 321 321 320 319 319 319 319 318 318 319 319 319 318 315 316 318 317 316 315 315 315 314 314 314 313 313 312 312 311 311 310 310 310 310 310 311 312 313 313 312
304 304 304 304 303 303 303 306 310 313 317 321 323 325 324 323 323 322 320 318 317 319 321 321 320 320 319 318 318 319 319 319 318 319 318 313 313 316 317 316 315 315 315 314 314 314 313 313 312 312 311 310 310 310 309 310 310 311 312 313 313 313
304 304 304 303 304 304 303 304 306 309 316 324 325 325 323 322 323 323 322 322 322 320 318 320 320 320 317 315 319 320 317 317 317 318 316 310 312 315 314 313 313 314 315 314 314 314 313 313 312 312 311 310 310 309 309 310 311 311 312 312 313 313
304 304 305 304 304 304 303 303 304 307 314 320 325 326 323 322 322 323 324 324 324 322 318 316 315 314 312 314 319 317 311 310 312 314 310 305 307 308 306 309 313 315 314 313 314 313 313 313 312 312 311 310 310 309 309 310 310 311 311 312 312 313
308 304 305 304 304 304 304 303 304 308 311 313 320 325 324 323 322 322 324 324 325 323 318 316 317 316 315 317 318 313 309 308 306 307 304 301 302 301 302 307 313 316 314 313 315 313 312 312 311 312 311 310 310 309 309 311 311 311 312 312 312 312
315 307 305 304 304 304 304 304 303 306 308 307 313 318 321 324 323 321 320 321 324 322 320 320 321 320 318 320 320 316 313 308 303 303 301 300 300 299 304 308 312 316 315 313 315 313 312 312 312 312 311 310 309 309 310 311 311 311 312 311 311 312
321 314 307 304 304 304 304 304 304 304 306 309 311 311 312 315 320 322 319 315 317 318 318 318 319 320 320 320 318 313 311 306 304 304 301 300 299 299 310 314 312 314 315 314 314 313 312 313 312 312 311 310 309 309 310 310 310 311 311 311 311 311
326 321 313 306 304 304 304 304 304 304 304 307 311 310 309 308 311 316 313 311 315 316 314 311 312 317 318 315 311 309 307 305 305 305 301 300 299 300 310 313 311 313 314 314 314 312 312 313 312 312 312 310 309 309 310 310 310 311 311 311 311 311
328 326 320 314 308 305 305 304 304 304 303 304 306 306 308 308 308 309 307 307 314 318 317 314 311 310 309 308 307 307 306 304 305 305 303 301 299 300 304 307 311 314 314 315 314 312 313 314 313 312 310 310 309 309 310 310 310 311 311 311 311 311
329 328 325 322 317 310 306 305 304 304 304 304 304 304 305 305 306 308 308 305 307 312 316 314 310 307 307 307 306 305 306 305 305 305 305 302 300 300 302 304 312 314 313 315 314 311 313 313 312 310 308 308 309 309 310 310 310 311 311 311 311 311
Wind_Speed
2 5 4 1 3 8 12 11 12 14 14 17 16 13 12 12 15 16 16 16 14 12 7 9 15 12 9 11 16 18 18 20 19 18 17 16 19 19 17 16 18 19 16 16 16 16 17 16 16 18 17 16 15 12 11 9 14 14 10 9 13 17
4 4 2 3 2 6 9 10 14 15 13 16 16 14 13 12 10 9 12 12 9 13 8 8 16 14 13 14 17 18 17 18 19 19 18 17 18 19 19 17 17 19 17 16 17 17 17 16 17 18 17 16 15 14 12 12 15 14 13 13 15 19
4 0 4 4 4 5 4 3 8 11 8 9 11 10 11 11 7 3 6 7 7 12 8 7 14 13 13 15 16 18 16 17 19 19 18 19 19 19 19 18 18 18 17 17 17 16 14 14 15 17 17 17 16 15 14 16 15 13 12 14 17 20
4 2 3 3 2 3 3 4 3 5 5 5 6 5 9 11 10 6 5 5 6 9 8 6 13 12 11 13 15 16 16 16 19 20 18 18 18 17 18 17 17 17 17 16 14 13 14 13 12 14 15 15 15 14 14 15 15 14 13 12 16 19
2 2 3 3 1 3 2 4 1 3 3 6 7 5 6 6 11 10 6 6 4 5 8 7 11 12 10 10 11 12 12 14 15 15 15 15 14 14 15 14 14 15 16 16 14 14 16 13 12 14 14 14 14 14 15 15 15 16 14 12 15 18
3 4 3 2 3 2 4 3 2 2 2 3 5 6 5 3 9 12 7 7 5 4 7 8 8 9 10 10 9 9 9 10 11 10 12 12 12 14 15 13 13 15 14 14 14 15 15 13 14 15 14 13 15 15 14 15 16 16 14 13 15 17
2 3 3 3 4 1 2 2 3 4 3 2 4 3 5 3 6 11 8 8 8 4 4 7 7 7 10 11 10 10 9 9 9 11 12 12 11 13 16 14 13 15 14 13 13 13 13 13 15 15 14 14 14 14 15 17 17 16 14 14 16 18
3 3 1 1 4 1 1 3 4 3 6 4 1 2 3 5 6 8 8 8 9 6 4 6 6 7 9 9 10 10 10 11 9 11 13 12 12 13 15 14 14 15 15 14 14 14 13 13 14 14 15 14 14 14 16 18 17 16 14 14 18 18
4 5 3 2 3 1 1 2 3 1 4 3 4 5 3 5 5 6 9 6 8 9 6 8 6 6 8 8 9 10 10 11 11 12 11 12 14 14 14 13 15 15 15 15 15 15 14 14 14 14 14 14 15 16 17 16 16 16 14 14 17 16
4 3 4 4 4 3 2 2 1 2 4 3 6 5 5 5 5 5 9 8 10 9 7 9 7 7 8 8 9 10 10 10 11 12 12 12 14 14 14 14 16 15 14 15 16 15 14 15 15 14 15 15 16 16 16 16 16 17 15 15 17 18
4 4 3 4 1 3 1 1 1 1 3 6 4 6 3 6 5 4 7 7 7 8 6 9 10 9 8 8 9 10 11 11 12 12 12 13 14 14 14 14 16 14 14 15 15 16 15 15 15 15 17 16 15 16 16 16 16 15 15 15 18 20
2 6 4 4 3 3 2 1 2 1 4 4 6 4 1 5 7 5 8 9 6 7 7 7 10 10 7 8 10 10 11 11 12 13 12 13 13 14 14 14 16 14 15 15 14 15 14 15 16 16 18 16 16 17 16 16 15 15 15 16 17 18
5 5 3 6 4 4 2 1 2 3 5 3 3 2 1 4 9 6 8 14 10 7 8 7 7 9 6 7 9 10 10 12 12 12 13 13 12 13 14 15 16 14 15 16 16 15 15 16 16 17 18 16 16 17 16 17 16 15 16 17 18 18
6 2 2 5 3 4 3 1 2 3 5 2 2 3 3 3 6 8 8 11 11 8 7 8 8 8 7 7 9 10 10 11 12 12 13 13 11 12 15 17 17 16 17 16 15 17 16 16 17 18 19 16 16 19 19 17 15 15 16 16 17 18
4 4 4 5 5 4 4 4 2 2 4 3 1 3 5 3 2 6 6 7 12 8 6 8 8 8 7 8 9 9 10 13 12 12 13 14 10 13 16 18 17 16 19 17 16 17 16 17 19 19 20 18 18 21 21 17 14 15 16 16 18 18
4 5 4 5 4 5 6 5 3 5 2 4 1 1 4 3 3 4 3 7 13 8 6 8 8 9 7 7 8 8 10 12 10 11 13 12 12 14 16 19 18 16 18 20 19 18 17 18 20 20 20 19 20 21 20 17 14 15 15 15 17 17
4 5 4 3 5 4 5 4 1 1 1 3 0 2 1 1 3 5 5 8 11 8 7 7 7 9 7 6 8 9 9 11 9 10 11 11 12 13 15 19 21 18 17 19 18 19 18 19 21 21 20 20 22 20 17 15 14 15 15 14 14 16
5 5 5 2 3 1 2 4 1 2 5 4 2 3 1 2 4 7 8 8 9 9 8 7 7 9 9 5 5 8 10 10 11 11 11 11 11 12 15 19 20 18 17 17 18 18 18 21 22 21 20 22 22 18 16 15 13 12 13 15 18 19
6 6 6 4 4 3 1 3 3 3 4 6 4 5 5 6 4 5 8 8 7 10 9 7 7 10 12 8 7 10 9 10 11 12 13 12 11 12 14 16 18 19 17 15 17 17 18 22 22 20 20 22 21 17 15 14 10 10 14 17 18 19
5 6 5 3 5 6 3 1 1 3 4 3 2 4 8 11 4 3 8 7 5 8 8 8 7 9 12 10 12 13 9 10 11 12 13 13 13 13 13 15 17 20 17 14 16 16 18 23 21 21 21 22 21 15 12 13 12 12 16 17 16 18
4 4 5 4 4 4 4 1 2 4 4 4 3 1 7 9 3 5 9 6 7 7 4 7 7 9 12 10 12 14 10 10 10 11 13 12 13 13 13 15 17 20 17 15 17 15 18 22 22 23 24 23 21 14 9 14 16 14 17 17 14 17
5 4 6 8 6 8 10 8 5 4 4 4 3 4 5 4 4 6 9 7 8 6 5 6 6 9 11 7 11 14 11 10 11 12 12 11 12 13 14 13 15 19 17 15 16 16 17 20 22 24 24 24 24 19 13 14 20 18 17 17 15 17
6 4 5 9 10 11 14 14 11 9 10 9 7 7 9 9 7 6 7 8 6 4 7 6 5 7 7 6 14 14 11 10 12 13 12 12 12 13 13 13 15 19 17 16 15 14 16 18 21 22 22 22 23 24 18 17 26 23 16 18 19 19
6 5 5 6 7 9 12 14 15 14 13 12 11 8 7 10 9 5 5 9 6 4 7 6 6 7 6 9 15 12 10 9 8 10 12 12 12 12 13 13 15 16 15 16 16 14 14 15 17 19 22 22 21 21 18 23 31 23 16 21 23 21
6 6 5 6 5 7 8 9 13 15 10 9 11 6 5 5 5 3 5 7 4 4 7 8 7 6 7 10 12 11 12 9 6 8 10 12 12 12 12 11 13 15 13 14 16 16 15 13 13 15 18 20 20 18 19 26 30 24 22 25 24 24
6 5 5 5 4 5 6 5 6 7 3 2 4 4 4 4 6 7 6 6 7 7 8 9 7 6 8 9 10 13 12 8 8 9 10 13 13 11 12 11 11 14 14 12 13 15 15 14 13 13 13 16 17 17 20 25 24 24 29 28 24 25
6 6 4 5 4 4 5 5 5 4 3 5 6 5 6 8 11 12 10 11 12 8 6 9 8 7 8 8 10 12 9 8 8 9 10 13 12 10 12 12 9 11 15 13 13 15 15 14 15 14 12 15 17 17 18 20 20 21 26 29 28 27
6 5 4 5 4 4 5 5 7 8 8 9 8 6 7 9 11 10 9 10 8 3 3 6 9 9 9 9 10 9 8 8 8 10 12 11 10 10 13 12 8 10 15 14 14 16 15 13 14 17 15 15 17 18 16 16 18 19 21 25 28 29
6 5 5 5 5 4 6 5 6 8 7 7 6 6 7 7 9 10 9 8 6 3 4 8 10 9 10 9 7 8 7 8 8 10 12 11 10 9 11 12 7 6 11 13 14 15 15 13 13 16 16 16 18 19 18 16 17 20 20 21 24 28
4 5 5 5 5 5 5 5 6 6 6 6 5 6 7 6 8 9 9 8 8 8 5 7 9 9 10 7 5 9 9 8 8 10 13 12 10 9 10 11 7 5 8 9 11 14 14 13 13 15 15 16 19 19 18 17 19 21 22 21 22 26
3 5 6 5 5 5 5 5 6 6 6 6 6 7 8 8 7 8 10 9 10 12 9 8 10 10 9 5 5 11 11 9 8 9 12 11 10 11 10 9 6 7 10 8 10 15 13 12 13 14 15 14 17 17 15 17 19 20 21 22 22 24
2 4 5 6 5 5 5 5 5 5 6 6 6 7 8 8 7 7 8 9 10 13 11 9 9 9 9 7 9 12 10 10 10 9 11 10 10 11 9 7 4 5 12 9 12 17 12 12 14 14 15 14 15 15 12 14 18 18 19 21 22 22
2 2 4 5 5 5 5 4 5 5 6 7 7 8 8 8 8 8 9 9 10 12 11 9 9 10 9 7 10 13 11 12 11 9 10 9 11 9 7 8 4 4 11 9 12 16 10 10 15 15 16 15 14 11 11 14 16 17 18 19 21 22
3 2 2 4 4 5 5 5 5 5 6 7 7 8 8 9 8 9 12 11 11 12 11 11 10 9 8 9 12 14 14 13 11 10 11 9 11 9 7 9 6 5 10 9 12 14 9 10 13 15 16 15 12 9 12 15 14 15 18 18 20 22
5 3 1 2 4 4 5 5 5 6 7 7 9 9 9 8 8 10 12 11 11 12 13 13 11 10 12 13 14 14 14 13 11 11 11 10 10 8 6 9 8 6 8 9 13 12 10 11 12 14 15 14 11 8 11 15 14 14 16 17 19 20
6 5 3 2 3 4 5 6 6 6 7 7 9 10 9 10 9 9 10 10 10 11 12 13 13 12 14 15 14 14 14 13 12 12 11 10 10 9 8 8 7 7 7 9 14 12 9 12 13 14 14 11 10 8 10 14 13 13 13 15 18 18
8 7 5 3 4 4 5 6 6 7 7 8 8 10 10 10 10 10 10 10 10 11 12 14 15 14 14 15 14 14 14 13 11 12 12 11 10 9 9 8 6 7 7 9 15 11 8 12 13 13 13 9 8 9 12 14 12 12 13 15 17 17
Wind_Direction
188 160 228 144 285 316 3 3 5 15 12 3 3 5 20 31 14 10 5 5 1 358 10 327 339 1 355 2 10 13 9 3 6 13 17 16 11 8 11 8 2 8 13 11 6 4 3 353 344 344 343 347 354 356 1 344 316 321 334 328 310 300
204 173 208 90 335 325 0 354 357 6 10 1 357 359 17 25 6 7 1 5 353 328 359 342 327 354 4 356 360 5 3 356 360 6 8 11 8 2 3 5 360 359 4 8 1 359 1 348 336 336 337 339 341 345 346 320 310 320 321 318 310 304
217 197 42 40 5 356 358 11 360 351 8 2 355 352 357 6 346 28 27 6 351 324 357 357 320 346 359 351 356 357 356 352 356 0 1 4 5 356 353 1 358 350 357 2 355 353 348 333 329 332 331 332 332 334 326 311 313 315 308 312 309 307
211 231 37 28 5 336 329 69 37 327 1 340 338 350 350 0 334 351 40 348 353 339 359 357 321 344 357 350 354 349 352 351 354 358 355 359 360 348 346 356 351 345 351 352 346 338 331 329 330 326 321 322 321 317 309 307 312 311 306 308 306 307
188 192 80 70 235 254 334 33 332 303 8 331 337 1 359 2 323 335 22 347 6 2 354 348 327 349 358 352 353 345 354 350 351 355 344 348 351 341 346 349 341 342 345 343 340 330 330 334 326 320 318 316 313 310 306 306 309 308 308 310 307 307
183 187 156 158 243 294 28 31 281 321 24 334 347 353 330 352 333 337 8 351 4 39 355 339 333 354 351 346 353 351 359 351 349 344 331 343 347 338 342 345 340 340 340 339 334 327 332 329 320 325 325 318 314 312 305 304 309 307 309 313 307 306
160 205 235 202 153 17 1 341 305 332 327 331 18 358 315 8 359 332 351 358 349 29 21 348 349 5 349 343 353 354 353 355 354 339 338 351 348 338 338 346 345 337 338 338 330 329 330 324 323 329 325 322 320 312 302 306 311 308 313 312 306 312
204 207 308 286 121 103 266 322 337 356 328 338 342 267 315 17 16 332 345 5 351 5 35 8 12 17 354 344 351 353 349 354 356 341 345 351 345 342 340 347 345 337 341 338 334 333 333 331 328 328 327 324 315 306 304 310 312 312 319 312 309 314
221 204 191 189 102 327 175 29 347 308 332 350 275 294 32 13 359 337 329 355 8 8 16 355 6 22 357 349 353 353 350 351 352 346 351 350 344 345 345 348 344 340 343 338 336 334 337 336 328 329 328 319 313 312 312 311 307 310 317 313 311 309
175 193 207 135 94 283 226 100 349 305 338 314 287 351 44 339 344 346 330 2 12 6 15 344 353 40 6 352 351 348 352 349 348 346 349 350 343 345 349 349 340 339 342 338 336 338 341 332 329 332 321 317 323 322 316 310 308 310 312 309 304 304
156 202 191 97 122 241 247 169 151 50 337 308 339 49 29 323 353 341 334 9 4 352 7 343 355 23 5 356 350 347 355 348 344 344 347 349 345 345 349 348 338 339 345 337 334 341 342 331 330 329 320 325 327 321 316 310 312 311 308 308 306 309
168 239 166 116 233 171 84 321 86 48 272 306 13 41 283 323 337 324 327 338 354 356 352 351 359 357 352 5 353 348 353 342 340 345 349 349 346 345 346 344 336 340 347 339 340 344 340 334 332 329 326 332 327 322 321 316 315 311 306 305 307 314
203 241 156 147 211 171 154 342 92 294 293 344 12 331 305 329 324 341 329 320 339 353 346 359 357 345 359 13 350 344 348 340 338 348 354 346 345 348 344 342 335 342 349 341 346 347 342 337 331 330 330 331 329 325 323 317 313 309 307 302 304 314
200 194 213 152 140 190 178 128 187 288 329 352 21 340 341 329 322 347 330 310 324 338 356 356 348 346 4 18 352 339 342 336 337 354 353 332 339 355 344 339 337 344 347 342 344 343 344 337 331 334 333 336 335 323 319 316 311 313 314 309 309 313
183 163 226 129 108 228 155 111 209 236 320 315 6 334 324 330 332 343 338 313 319 336 5 346 345 346 358 18 350 336 341 332 338 356 342 323 351 10 347 336 338 346 347 347 349 344 344 337 333 337 337 342 333 320 322 323 322 321 315 311 311 315
184 164 209 142 148 220 147 126 232 218 291 353 51 301 330 329 302 315 324 315 315 328 351 336 346 346 353 11 344 340 342 324 330 343 330 335 5 6 346 336 341 352 348 347 348 344 342 335 334 338 339 339 327 323 331 333 332 326 319 318 315 318
193 160 205 190 171 177 140 141 331 239 270 8 154 226 303 24 308 296 282 308 315 317 334 335 340 340 339 358 349 338 321 308 323 334 332 348 0 358 350 342 345 353 350 346 344 342 342 336 336 340 339 335 331 334 341 336 334 332 329 322 308 307
185 169 188 206 177 72 88 160 129 272 265 331 7 221 227 56 325 299 277 289 317 321 327 332 333 329 317 326 348 324 312 317 335 343 345 349 352 359 357 348 344 347 349 347 344 344 341 333 336 341 336 335 339 343 344 338 334 329 317 307 309 318
188 198 192 188 175 157 159 163 171 247 287 340 333 259 299 336 308 288 286 295 324 321 321 329 326 324 323 331 333 323 326 340 347 345 346 349 352 359 357 349 340 340 348 345 344 347 337 333 340 343 335 337 345 347 350 348 329 313 314 319 328 335
195 207 201 164 129 152 187 55 140 259 304 321 272 260 298 309 300 247 277 301 315 298 315 328 321 326 337 343 328 331 342 343 349 341 340 352 353 355 356 350 338 338 346 343 346 347 336 338 343 342 338 343 350 349 360 355 324 320 338 345 345 339
206 203 190 149 103 152 201 281 235 251 269 260 250 267 291 291 267 255 276 296 292 287 315 319 334 342 342 341 317 328 341 336 347 339 339 350 347 350 351 350 341 335 342 344 348 344 337 345 345 342 343 345 349 348 360 343 324 340 355 348 342 339
218 215 185 170 181 200 197 198 212 222 225 240 244 249 272 250 207 264 292 305 299 316 319 312 355 339 336 344 302 317 335 336 346 336 336 342 341 348 344 351 343 330 338 347 345 339 340 350 348 345 342 342 346 345 351 337 331 353 356 343 348 345
218 220 189 181 196 204 195 195 201 205 206 199 206 232 237 237 260 295 310 318 315 311 304 324 4 315 322 318 294 314 335 337 344 335 339 342 339 344 338 347 339 329 342 346 340 340 346 352 346 345 345 345 345 340 343 341 341 352 346 341 353 351
218 214 206 207 211 207 199 199 204 211 217 212 220 245 245 251 284 323 328 327 322 295 304 320 317 298 311 302 297 315 318 316 332 329 337 337 331 334 333 341 333 330 345 343 340 343 345 351 347 348 351 349 346 341 340 339 340 344 340 343 350 352
216 216 218 229 226 212 211 206 209 219 229 219 222 258 321 305 292 297 312 315 287 285 302 293 286 290 301 301 301 307 305 310 325 323 325 318 316 322 324 332 328 330 338 334 340 342 338 346 348 350 353 349 346 343 338 337 340 337 337 344 347 349
217 223 225 233 231 221 227 217 211 226 235 222 244 277 306 285 243 244 267 270 259 264 282 299 312 308 300 303 303 303 311 324 325 326 320 310 312 317 317 320 325 333 333 328 335 335 333 341 346 349 354 351 345 338 334 338 343 336 333 340 344 347
215 221 219 230 236 226 226 208 200 223 232 245 262 264 257 255 255 254 250 259 271 273 300 324 319 303 300 300 299 304 317 322 319 318 307 306 315 316 312 314 330 334 326 330 334 331 334 341 345 348 349 348 344 339 337 341 345 339 333 335 339 344
219 219 215 228 235 228 226 207 200 213 223 231 234 243 258 265 276 284 273 266 272 275 318 297 275 281 291 285 292 305 320 322 315 309 303 305 312 312 312 318 338 337 326 334 338 333 333 334 339 340 337 342 344 342 341 342 345 343 337 331 334 342
219 218 216 227 232 229 227 216 214 220 224 230 233 247 259 265 276 289 297 295 293 272 237 252 270 285 281 280 301 307 310 309 303 300 299 301 307 311 315 315 319 331 330 337 337 332 329 328 335 333 330 340 344 341 342 347 346 343 342 336 334 340
214 219 218 224 234 235 230 224 224 225 225 232 242 256 258 259 265 277 298 305 299 296 269 251 269 274 272 282 301 287 281 282 285 290 294 302 311 308 305 305 309 321 323 331 329 322 322 325 332 332 333 342 341 338 341 346 345 342 344 343 339 339
207 221 216 218 233 236 235 233 228 225 225 225 230 256 268 272 269 281 305 303 283 285 288 274 271 276 284 284 269 277 282 283 282 288 296 306 312 307 305 309 335 334 318 330 319 306 314 326 329 335 335 336 334 333 338 342 340 341 344 344 342 341
207 220 214 217 228 233 237 236 235 233 234 230 220 238 267 280 276 267 283 293 282 280 289 292 289 292 299 300 292 293 300 300 297 297 305 318 318 315 318 317 4 343 318 331 315 304 322 335 328 329 325 325 329 328 339 342 337 342 346 346 345 343
224 222 218 225 224 231 242 240 242 241 242 246 231 226 237 252 266 258 245 251 267 278 286 285 282 287 292 293 293 296 299 301 305 308 314 328 321 321 331 325 360 347 311 316 309 309 330 333 322 323 320 324 328 334 356 346 335 345 349 348 349 346
242 252 229 237 235 236 246 245 249 249 245 254 253 248 243 234 242 256 255 252 257 266 269 270 275 283 280 271 276 285 292 298 307 314 319 328 321 326 338 321 323 318 307 311 309 315 334 328 321 321 319 325 329 348 3 340 331 347 350 350 352 348
236 262 259 247 251 245 249 252 253 254 250 251 255 261 265 257 247 253 265 269 267 272 277 275 273 269 270 277 284 289 294 301 306 310 319 327 322 327 323 306 307 310 317 319 310 318 336 326 319 316 316 325 332 353 355 331 330 348 350 350 350 349
232 256 277 285 282 263 257 260 259 261 260 254 257 263 268 276 280 272 270 268 265 274 284 284 281 277 277 283 289 293 296 301 302 306 319 327 326 327 317 312 318 319 331 322 307 318 335 318 313 312 315 327 335 351 353 333 329 342 349 351 347 349
226 243 266 288 297 292 282 272 268 267 268 266 265 268 269 274 284 285 283 277 267 265 269 278 285 287 286 286 291 297 298 300 303 308 316 324 330 328 319 324 323 316 331 312 303 320 329 309 309 314 320 335 341 343 343 332 328 338 348 351 346 348